Home > Weather > Kansas City > Past weeks

Flag for USA Past Weather in Kansas City, Missouri, USA — Yesterday and Last 2 Weeks

Now
89 °F

Sunny.


Feels Like: 92 °F
Forecast: 75 / 89 °F
Wind: 6 mph from Northwest

Location: Kansas City Downtown Airport

Current Time: Jul 27, 2016 at 8:08:22 PM

Latest Report: Jul 27, 2016 at 6:54 PM


Visibility: 10 mi

Pressure: 29.86 "Hg

Humidity: 48%

Dew Point: 67 °F

Location of Kansas CityLocation

Past Weather in Kansas City — Graph

°F

Kansas City Temperature Yesterday

Maximum temperature yesterday: 88 °F (at 2:54 PM)
Minimum temperature yesterday: 72 °F (at 5:54 AM)
Average temperature yesterday: 81 °F

High & Low Weather Summary for the Past Weeks

 TemperatureHumidityPressure
High98 °F (Jul 21, 4:54 PM)97% (Jul 14, 5:00 AM)30.18 "Hg (Jul 14, 5:00 AM)
Low70 °F (Jul 15, 4:54 AM)35% (Jul 22, 8:54 AM)29.75 "Hg (Jul 13, 12:54 PM)
Average84 °F66%29.97 "Hg
* Reported Jul 12 6:54 PM — Jul 27 6:54 PM, Kansas City, Weather by CustomWeather, © 2016

Note: Actual official high and low records may vary slightly from our data, if they occured in-between our weather recording intervals... More about our weather records

Advertising

Kansas City Weather History for the Previous 24 Hours

Scroll right to see more
 ConditionsComfort  
Time TempWeatherWind HumidityBarometerVisibility
6:54 PM
Wed, Jul 27
89 °FSunny.6 mph48%29.86 "Hg10 mi
5:54 PM90 °FSunny.8 mph48%29.88 "Hg10 mi
4:54 PM92 °FSunny.7 mph46%29.88 "Hg10 mi
3:54 PM91 °FSunny.7 mph44%29.89 "Hg10 mi
2:54 PM91 °FSunny.No wind42%29.91 "Hg10 mi
1:54 PM90 °FSunny.3 mph45%29.93 "Hg10 mi
12:54 PM89 °FSunny.3 mph45%29.95 "Hg10 mi
11:54 AM88 °FSunny.5 mph52%29.95 "Hg10 mi
10:54 AM86 °FSunny.15 mph55%29.92 "Hg10 mi
9:54 AM82 °FSunny.6 mph70%29.95 "Hg10 mi
8:54 AM78 °FSunny.3 mph76%29.95 "Hg10 mi
7:54 AM75 °FSunny.3 mph82%29.95 "Hg10 mi
6:54 AM72 °FClear.No wind87%29.97 "Hg10 mi
5:54 AM73 °FClear.3 mph84%29.97 "Hg10 mi
4:54 AM74 °FClear.3 mph79%29.97 "Hg10 mi
3:54 AM74 °FPassing clouds.No wind79%29.96 "Hg10 mi
2:54 AM74 °FClear.6 mph79%29.95 "Hg10 mi
1:54 AM75 °FPassing clouds.5 mph76%29.96 "Hg10 mi
12:54 AM75 °FClear.5 mph76%29.96 "Hg10 mi
11:54 PM
Tue, Jul 26
77 °FClear.5 mph71%29.95 "Hg10 mi
10:54 PM79 °FClear.5 mph67%29.96 "Hg10 mi
9:54 PM80 °FClear.5 mph64%29.96 "Hg10 mi
8:54 PM81 °FSunny.6 mph62%29.95 "Hg10 mi
Weather by CustomWeather, © 2016

See weather overviewHow to use our weather pages